McCook, NE

7:11 AM CST on December 10, 2019 (GMT -0600)
McCook Municipal

Weather History for KMCK - September, 2019

Change the Weather History Date:

Friday, September 13, 2019

  Actual Average Record
Temperature  
Mean Temperature 66 °F 66 °F  
Max Temperature 84 °F 81 °F 104 °F (1931)
Min Temperature 48 °F 51 °F 32 °F (2014)
Cooling Degree Days 1    
Growing Degree Days 16 (Base 50)    
Moisture  
Dew Point 50 °F    
Average Humidity 60    
Maximum Humidity 97    
Minimum Humidity 32    
Precipitation  
Precipitation 0.00 in 0.05 in 1.50 in (1985)
Month to date precipitation 0.51 0.65  
Year to date precipitation 17.84 18.36  
Sea Level Pressure  
Sea Level Pressure 30.17 in    
Wind  
Wind Speed 6 mph ()    
Max Wind Speed 16 mph    
Max Gust Speed 26 mph    
Visibility 9.8 miles    
Events      
T = Trace of Precipitation, MM = Missing Value Source: Averaged Metar Reports

Daily Weather History Graph

Daily Weather History Graph

Search for Another Location

Airport or City:

Astronomy

Sep. 13, 2019 Rise Set
Actual Time 7:21 AM CDT 7:54 PM CDT
Civil Twilight 6:53 AM CDT 8:22 PM CDT
Nautical Twilight 6:21 AM CDT 8:54 PM CDT
Astronomical Twilight 5:48 AM CDT 9:27 PM CDT
Moon 8:09 PM CDT (9/13) 6:39 AM CDT (9/13)
Length of Visible Light 13h 28m
Length of Day
12h 33m
Full, 100% of the Moon is Illuminated
Sep 13
Full
Sep 13
Full
Sep 21
Last Quarter
Sep 28
New
Oct 5
First Quarter

Hourly Weather History & Observations

Time (CDT) Temp. Dew Point Humidity Pressure Visibility Wind Dir Wind Speed Gust Speed Precip Events Conditions
12:53 AM 55.9 °F 48.0 °F 75% 30.20 in 10.0 mi Calm Calm - N/A   Clear
1:53 AM 52.0 °F 48.0 °F 86% 30.21 in 10.0 mi West 4.6 mph - N/A   Clear
2:53 AM 48.9 °F 48.0 °F 97% 30.22 in 10.0 mi SSW 6.9 mph - N/A   Clear
3:53 AM 51.1 °F 46.9 °F 86% 30.21 in 10.0 mi WSW 10.4 mph - N/A   Clear
4:53 AM 48.9 °F 46.0 °F 90% 30.22 in 10.0 mi WSW 4.6 mph - N/A   Clear
5:53 AM 48.9 °F 46.0 °F 90% 30.23 in 10.0 mi West 5.8 mph - N/A   Clear
6:53 AM 50.0 °F 46.9 °F 89% 30.24 in 10.0 mi West 4.6 mph - N/A   Mostly Cloudy
7:53 AM 52.0 °F 48.9 °F 89% 30.25 in 10.0 mi Calm Calm - N/A   Scattered Clouds
8:53 AM 55.9 °F 51.1 °F 84% 30.25 in 10.0 mi Calm Calm - N/A   Mostly Cloudy
9:53 AM 60.1 °F 51.1 °F 72% 30.26 in 10.0 mi WSW 5.8 mph - N/A   Overcast
10:53 AM 66.9 °F 54.0 °F 63% 30.25 in 10.0 mi SSW 6.9 mph - N/A   Partly Cloudy
11:53 AM 75.0 °F 51.1 °F 43% 30.23 in 10.0 mi SSW 11.5 mph - N/A   Clear
12:13 PM 75.9 °F 50.0 °F 40% 30.26 in 6.0 mi SSW 11.5 mph 20.7 mph N/A   Haze
12:53 PM 78.1 °F 51.1 °F 39% 30.20 in 10.0 mi South 12.7 mph - N/A   Clear
1:53 PM 81.0 °F 50.0 °F 34% 30.17 in 10.0 mi SSW 16.1 mph 23.0 mph N/A   Clear
2:53 PM 82.0 °F 50.0 °F 33% 30.14 in 10.0 mi South 15.0 mph 23.0 mph N/A   Partly Cloudy
3:53 PM 82.9 °F 50.0 °F 32% 30.11 in 10.0 mi SSW 12.7 mph 21.9 mph N/A   Clear
4:53 PM 82.9 °F 51.1 °F 33% 30.09 in 10.0 mi South 12.7 mph 21.9 mph N/A   Clear
5:53 PM 82.0 °F 50.0 °F 33% 30.08 in 10.0 mi South 13.8 mph 23.0 mph N/A   Clear
6:53 PM 81.0 °F 51.1 °F 35% 30.06 in 10.0 mi SSE 10.4 mph - N/A   Clear
7:53 PM 73.9 °F 53.1 °F 48% 30.06 in 10.0 mi SE 8.1 mph - N/A   Clear
8:53 PM 71.1 °F 53.1 °F 53% 30.06 in 10.0 mi SE 11.5 mph - N/A   Clear
9:53 PM 70.0 °F 52.0 °F 53% 30.06 in 10.0 mi SSE 9.2 mph - N/A   Clear
10:53 PM 71.1 °F 51.1 °F 49% 30.06 in 10.0 mi SSE 13.8 mph 24.2 mph N/A   Partly Cloudy
11:53 PM 70.0 °F 52.0 °F 53% 30.04 in 10.0 mi South 16.1 mph 26.5 mph N/A   Clear